Showing default

FLYLAB 2, 68503

Orbit data source: Space-Track

FLYLAB 2, 68503 is a payload satellite owned by ONERA (FR) in SSO that was launched on Mon, 30 Mar 2026 UTC via an FALCON 9 launch vehicle from the Air Force Western Test Range (AFWTR). Payload-class satellites include a variety of spacecraft equipped with specific instruments for various scientific and technological missions. These include communications satellites like Starlink; space stations such as the ISS; scientific satellites like the Hubble; Earth observation satellites from companies like Planet Labs, Umbra, and HawkEye 360; GPS; miniature CubeSats for education and research; and military/defense satellites.

Loading next visibility...
Identifier
68503, 2026-067CR
Orbit
SSO
Country
Flag of FRFR
Related business
Manufacturer
NanoAvionics
Mission
Operational spacecraft
Bus & Motor
CUBESAT 6U, Unknown motor
Mass
10 kg wet, ~10 kg dry
Launch date (UTC)
2026-03-30 (1 month ago)
Launch vehicle
FALCON 9
Launch site
Air Force Western Test Range (AFWTR)
Object type
Payload
Rocket body
Debris
Shape & HBR
Unknown shape, 14.5 m
Radar Cross Section
RCS unknown

Expand to show TLE details & history
Last TLE update: 8 hours ago

TLE from 8 hours ago
0 FLYLAB 2
1 68503U 26067CR  26127.15836953  .00002130  00000-0  22326-3 0  9995
2 68503  97.7549  85.9814 0004926 178.7831 181.3400 14.90601231  5601
Epoch: 2026-05-07T03:48Z
TLE epoch observation values (Epoch: 2026-05-07T03:48:03.127Z)
Latitude
-0.00002°
Longitude
163.95985°
Altitude
602.535 km
Speed
7.556 km/s
True Right ascension
05h 43m 55s
True Declination
0° 00' 00"
Sunlit
Object was in daylight at epoch
Visualization orbit readout
Latitude
Unknown
Longitude
Unknown
Altitude
Unknown
Speed
Unknown
Apparent Right ascension
Unknown
Apparent Declination
Unknown
Sunlit
N/A
Visualization observer readout
Local Sidereal Time
20:04:24
Azimuth
Unknown
Elevation
Unknown
Doppler factor
Unknown
Orbital elements
Apogee altitude
596.514 km
Perigee altitude
589.646 km
Semi-major axis
6,971.217 km
Eccentricity
0.00049
Inclination
97.7549°
RAAN
85.9814°
Arg. of periapsis
178.7831°
True anomaly
181.33868°
Mean anomaly
181.34°
Eccentric anomaly
181.33934°
Mean motion
3.7289 °/min
Orbital period
96.54 mins
BSTAR
0.00022326
Loading maneuver chart data...
Computing Atmospheric mass density...
Loading historical data...
Loading historical data...
Loading historical data...
Loading historical data...
Loading historical data...
Loading historical data...
Loading historical data...

Documentation

Showing up to 5 results
|